Chippewa, MI

2:42 PM EST on February 22, 2018 (GMT -0500)
Chippewa County International

Weather History for KCIU - December, 2012

Change the Weather History Date:

Sunday, December 16, 2012

  Actual Average Record
Temperature  
Mean Temperature 32 °F -  
Max Temperature 33 °F 31 °F 50 °F (1984)
Min Temperature 32 °F 11 °F -16 °F (2013)
Degree Days  
Heating Degree Days 32    
Moisture  
Dew Point 33 °F    
Average Humidity 97    
Maximum Humidity 100    
Minimum Humidity 93    
Precipitation  
Precipitation 0.01 in - - ()
Sea Level Pressure  
Sea Level Pressure 29.56 in    
Wind  
Wind Speed 14 mph (East)    
Max Wind Speed 22 mph    
Max Gust Speed 32 mph    
Visibility 3 miles    
Events      
Averages and records for this station are not official NWS values.
T = Trace of Precipitation, MM = Missing Value Source: NWS Daily Summary

Daily Weather History Graph

Daily Weather History Graph

Search for Another Location

Airport or City:

Trip Planner

Search our weather history database for the weather conditions in past years. The results will help you decide how hot, cold, wet, or windy it might be!

Date:

Astronomy

Dec. 16, 2012 Rise Set
Actual Time 8:15 AM EST 4:52 PM EST
Civil Twilight 7:40 AM EST 5:27 PM EST
Nautical Twilight 7:02 AM EST 6:05 PM EST
Astronomical Twilight 6:25 AM EST 6:42 PM EST
Moon 10:37 AM EST (12/16) 9:17 PM EST (12/16)
Length of Visible Light 9h 47m
Length of Day
8h 37m
Waxing Crescent, 16% of the Moon is Illuminated
Dec 16
Waxing Crescent
Dec 20
First Quarter
Dec 28
Full
Jan 4
Last Quarter
Jan 11
New

Hourly Weather History & Observations

Time (EST) Temp. Windchill Dew Point Humidity Pressure Visibility Wind Dir Wind Speed Gust Speed Precip Events Conditions
12:15 AM 33.8 °F 22.5 °F 33.8 °F 100% 29.68 in 2.0 mi East 19.6 mph 24.2 mph N/A   Overcast
12:35 AM 33.8 °F 22.8 °F 33.8 °F 100% 29.67 in 1.8 mi East 18.4 mph 26.5 mph N/A   Overcast
12:55 AM 33.8 °F 22.2 °F 33.8 °F 100% 29.66 in 2.0 mi East 20.7 mph 27.6 mph N/A   Overcast
1:15 AM 33.8 °F 22.5 °F 33.8 °F 100% 29.64 in 1.8 mi East 19.6 mph 32.2 mph N/A   Overcast
1:35 AM 33.8 °F 23.2 °F 33.8 °F 100% 29.64 in 2.5 mi East 17.3 mph 27.6 mph N/A   Overcast
1:55 AM 33.8 °F 22.2 °F 33.8 °F 100% 29.63 in 3.0 mi East 20.7 mph 26.5 mph N/A   Overcast
2:15 AM 33.8 °F 22.5 °F 33.8 °F 100% 29.63 in 3.0 mi East 19.6 mph 27.6 mph N/A   Overcast
2:35 AM 33.8 °F 22.5 °F 33.8 °F 100% 29.63 in 4.0 mi East 19.6 mph 26.5 mph N/A   Overcast
2:55 AM 33.8 °F 22.8 °F 33.8 °F 100% 29.62 in 4.0 mi East 18.4 mph 27.6 mph N/A   Overcast
3:15 AM 33.8 °F 22.8 °F 33.8 °F 100% 29.62 in 5.0 mi East 18.4 mph - N/A   Overcast
3:35 AM 33.8 °F 22.8 °F 33.8 °F 100% 29.61 in 7.0 mi East 18.4 mph 26.5 mph N/A   Overcast
3:55 AM 33.8 °F 21.9 °F 32.0 °F 93% 29.60 in 7.0 mi East 21.9 mph 27.6 mph N/A   Overcast
4:15 AM 33.8 °F 23.9 °F 32.0 °F 93% 29.59 in 10.0 mi East 15.0 mph 24.2 mph N/A   Overcast
4:35 AM 33.8 °F 23.2 °F 33.8 °F 100% 29.59 in 10.0 mi East 17.3 mph 21.9 mph N/A   Overcast
4:55 AM 33.8 °F 22.8 °F 33.8 °F 100% 29.58 in 8.0 mi East 18.4 mph 24.2 mph N/A   Overcast
5:15 AM 33.8 °F 22.5 °F 33.8 °F 100% 29.58 in 10.0 mi East 19.6 mph 24.2 mph N/A   Overcast
5:35 AM 33.8 °F 23.2 °F 33.8 °F 100% 29.57 in 10.0 mi East 17.3 mph 20.7 mph N/A   Overcast
5:55 AM 32.0 °F 21.2 °F 30.2 °F 93% 29.57 in 10.0 mi East 16.1 mph 23.0 mph N/A   Overcast
6:35 AM 32.0 °F 21.2 °F 32.0 °F 100% 29.57 in 10.0 mi East 16.1 mph 20.7 mph N/A   Overcast
6:55 AM 32.0 °F 21.2 °F 32.0 °F 100% 29.56 in 10.0 mi East 16.1 mph - N/A   Overcast
7:15 AM 32.0 °F 19.8 °F 32.0 °F 100% 29.56 in 9.0 mi East 20.7 mph 27.6 mph N/A   Overcast
7:35 AM 32.0 °F 20.8 °F 32.0 °F 100% 29.56 in 10.0 mi East 17.3 mph 21.9 mph N/A   Overcast
7:55 AM 32.0 °F 22.1 °F 32.0 °F 100% 29.56 in 8.0 mi East 13.8 mph - N/A   Overcast
8:15 AM 32.0 °F 22.5 °F 32.0 °F 100% 29.56 in 2.5 mi East 12.7 mph 18.4 mph N/A   Overcast
8:35 AM 32.0 °F 22.1 °F 32.0 °F 100% 29.56 in 2.0 mi East 13.8 mph - N/A   Overcast
8:55 AM 32.0 °F 22.1 °F 30.2 °F 93% 29.55 in 2.5 mi East 13.8 mph 19.6 mph N/A   Overcast
9:15 AM 32.0 °F 21.6 °F 30.2 °F 93% 29.55 in 1.8 mi East 15.0 mph - N/A   Overcast
9:35 AM 32.0 °F 23.0 °F 30.2 °F 93% 29.55 in 1.8 mi East 11.5 mph - N/A   Overcast
9:55 AM 32.0 °F 24.2 °F 32.0 °F 100% 29.56 in 2.0 mi East 9.2 mph - N/A   Overcast
10:15 AM 33.8 °F 27.0 °F 33.8 °F 100% 29.56 in 2.5 mi East 8.1 mph - N/A   Overcast
10:35 AM 33.8 °F 25.3 °F 33.8 °F 100% 29.56 in 3.0 mi East 11.5 mph - N/A   Overcast
11:15 AM 33.8 °F 25.8 °F 33.8 °F 100% 29.56 in 3.0 mi East 10.4 mph - N/A   Overcast
11:55 AM 33.8 °F 26.4 °F 33.8 °F 100% 29.55 in 1.8 mi East 9.2 mph - N/A   Overcast
12:15 PM 33.8 °F 25.3 °F 32.0 °F 93% 29.53 in 1.2 mi East 11.5 mph - N/A   Overcast
12:35 PM 33.8 °F 27.0 °F 32.0 °F 93% 29.54 in 0.8 mi East 8.1 mph - N/A   Overcast
12:55 PM 33.8 °F 27.7 °F 32.0 °F 93% 29.53 in 0.5 mi East 6.9 mph - N/A   Overcast
1:15 PM 33.8 °F 27.7 °F 32.0 °F 93% 29.53 in 0.2 mi East 6.9 mph - N/A   Overcast
1:35 PM 33.8 °F 28.6 °F 32.0 °F 93% 29.53 in 0.2 mi East 5.8 mph - N/A   Overcast
1:55 PM 33.8 °F 28.6 °F 33.8 °F 100% 29.53 in 0.2 mi East 5.8 mph - N/A   Overcast
2:15 PM 33.8 °F 27.7 °F 32.0 °F 93% 29.53 in 0.2 mi East 6.9 mph - N/A   Overcast
2:35 PM 33.8 °F 27.7 °F 32.0 °F 93% 29.52 in 0.2 mi East 6.9 mph - N/A   Overcast
2:55 PM 33.8 °F 29.6 °F 32.0 °F 93% 29.52 in 0.2 mi East 4.6 mph - N/A   Overcast
3:15 PM 33.8 °F 29.6 °F 32.0 °F 93% 29.52 in 0.2 mi ENE 4.6 mph - N/A   Overcast
3:35 PM 33.8 °F 29.6 °F 32.0 °F 93% 29.52 in 0.2 mi East 4.6 mph - N/A   Overcast
3:55 PM 33.8 °F 27.7 °F 32.0 °F 93% 29.52 in 0.2 mi ENE 6.9 mph - N/A   Overcast
4:15 PM 33.8 °F 29.6 °F 32.0 °F 93% 29.53 in 0.2 mi East 4.6 mph - N/A   Overcast
4:35 PM 33.8 °F 27.7 °F 32.0 °F 93% 29.52 in 0.2 mi East 6.9 mph - N/A   Overcast
4:55 PM 33.8 °F 28.6 °F 32.0 °F 93% 29.52 in 0.2 mi East 5.8 mph - N/A   Overcast
5:15 PM 33.8 °F 29.6 °F 32.0 °F 93% 29.53 in 0.2 mi East 4.6 mph - N/A   Overcast
5:35 PM 33.8 °F 30.8 °F 32.0 °F 93% 29.53 in 0.2 mi East 3.5 mph - N/A   Overcast
5:55 PM 33.8 °F 30.8 °F 32.0 °F 93% 29.54 in 0.2 mi East 3.5 mph - N/A   Overcast
6:35 PM 33.8 °F 29.6 °F 32.0 °F 93% 29.54 in 0.2 mi East 4.6 mph - N/A   Overcast
6:55 PM 33.8 °F 30.8 °F 32.0 °F 93% 29.54 in 0.2 mi East 3.5 mph - N/A   Overcast
7:15 PM 33.8 °F 29.6 °F 32.0 °F 93% 29.54 in 0.5 mi East 4.6 mph - N/A   Overcast
7:35 PM 33.8 °F 29.6 °F 32.0 °F 93% 29.54 in 0.5 mi ENE 4.6 mph - N/A   Overcast
7:55 PM 33.8 °F 29.6 °F 32.0 °F 93% 29.54 in 0.5 mi East 4.6 mph - N/A   Overcast
8:15 PM 33.8 °F 28.6 °F 32.0 °F 93% 29.54 in 0.5 mi East 5.8 mph - N/A   Overcast
8:35 PM 33.8 °F 30.8 °F 32.0 °F 93% 29.54 in 0.5 mi East 3.5 mph - N/A   Overcast
8:55 PM 33.8 °F 29.6 °F 33.8 °F 100% 29.54 in 0.8 mi East 4.6 mph - N/A   Overcast
9:15 PM 33.8 °F 30.8 °F 33.8 °F 100% 29.54 in 0.8 mi ESE 3.5 mph - N/A   Overcast
9:35 PM 33.8 °F 30.8 °F 33.8 °F 100% 29.54 in 0.8 mi ESE 3.5 mph - N/A   Overcast
9:55 PM 33.8 °F 30.8 °F 32.0 °F 93% 29.54 in 0.5 mi East 3.5 mph - N/A   Overcast
10:15 PM 33.8 °F 29.6 °F 32.0 °F 93% 29.54 in 0.5 mi East 4.6 mph - N/A   Overcast
10:35 PM 33.8 °F 29.6 °F 33.8 °F 100% 29.54 in 0.5 mi East 4.6 mph - N/A   Overcast
10:55 PM 33.8 °F 29.6 °F 33.8 °F 100% 29.53 in 0.5 mi East 4.6 mph - N/A   Overcast
11:15 PM 33.8 °F - 33.8 °F 100% 29.54 in 0.5 mi Calm Calm - N/A   Overcast
11:35 PM 33.8 °F - 33.8 °F 100% 29.54 in 0.5 mi Calm Calm - 0.01 in   Overcast
11:55 PM 33.8 °F - 33.8 °F 100% 29.54 in 0.5 mi Calm Calm - 0.01 in   Overcast